Location: Beekmeers
(50.8953°N, 3.6968°E)
Time: 05:19:16
(UTC+00:00)

Cosmos 2219 Rocket - Pass Details

Date: 23 May 2024
Orbit: 826 x 847 km, 71.0° (Epoch: 19 June)

Event Time Altitude Azimuth Distance (km) Brightness Sun altitude
Rises 01:47:44 0° 331° (NNW) 3,398 5.8 -13.3°
Reaches altitude 10° 01:50:16 10° 337° (NNW) 2,463 5.1 -13.1°
Maximum altitude 01:55:46 50° 53° (NE) 1,063 3.2 -12.6°
Drops below altitude 10° 02:01:15 10° 128° (SE) 2,462 4.6 -12.2°
Sets 02:03:46 0° 134° (SE) 3,395 5.2 -12.0°
